GW3385 Weather Reports


time (UTC)temp
C
wind
direction
speed
KPH
gust
KPH
rain 1hr
cm
rain 24hr
cm
rain mn
cm
humidity
%
barometer
mb
20260904045556 18 0 0.0 3.2 0.00 0.00 0.00 85 1011.3
20260904045057 18 0 0.0 4.8 0.00 0.00 0.00 85 1011.3
20260904044605 18 0 0.0 4.8 0.00 0.00 0.00 85 1011.4
20260904044055 18 352 0.0 0.0 0.00 0.00 0.00 85 1011.3
20260904043556 18 0 0.0 0.0 0.00 0.00 0.00 84 1011.2
20260904043108 18 0 0.0 0.0 0.00 0.00 0.00 84 1011.0
20260904042556 18 0 0.0 3.2 0.00 0.00 0.00 84 1011.0
20260904042058 18 0 0.0 3.2 0.00 0.00 0.00 84 1011.1
20260904041609 19 0 0.0 3.2 0.00 0.00 0.00 84 1011.1
20260904041055 19 0 0.0 4.8 0.00 0.00 0.00 83 1011.0
20260904040555 19 0 0.0 4.8 0.00 0.00 0.00 83 1010.9
20260904040110 19 0 0.0 4.8 0.00 0.00 0.00 83 1011.1
20260904035557 19 0 0.0 3.2 0.00 0.00 0.00 83 1011.1
20260904035056 19 0 0.0 6.4 0.00 0.00 0.00 83 1011.0
20260904034614 19 268 0.0 6.4 0.00 0.00 0.00 83 1011.0
20260904034057 19 270 0.0 6.4 0.00 0.00 0.00 83 1010.9
20260904033555 19 203 0.0 6.4 0.00 0.00 0.00 83 1010.9
20260904033100 19 292 0.0 6.4 0.00 0.00 0.00 83 1010.8
20260904032555 19 180 3.2 6.4 0.00 0.00 0.00 83 1010.8
20260904032056 19 205 1.6 9.7 0.00 0.00 0.00 83 1010.8
20260904031604 19 0 1.6 9.7 0.00 0.00 0.00 83 1010.8
20260904031055 19 0 1.6 9.7 0.00 0.00 0.00 82 1010.8
20260904030555 19 198 1.6 8.0 0.00 0.00 0.00 82 1010.8
20260904030107 19 217 1.6 9.7 0.00 0.00 0.00 83 1010.7
20260904025556 19 263 3.2 9.7 0.00 0.00 0.00 83 1010.7
20260904025056 19 0 3.2 12.9 0.00 0.00 0.00 83 1010.6
20260904024603 19 244 0.0 17.7 0.00 0.00 0.00 83 1010.6
20260904024055 19 163 6.4 17.7 0.00 0.00 0.00 82 1010.7
20260904023555 19 185 4.8 11.3 0.00 0.00 0.00 82 1010.6
20260904023058 20 205 3.2 12.9 0.00 0.00 0.00 82 1010.7
20260904022556 20 210 4.8 16.1 0.00 0.00 0.00 82 1010.7
20260904022057 20 0 8.0 16.1 0.00 0.00 0.00 82 1010.6
20260904021558 20 290 8.0 16.1 0.00 0.00 0.00 82 1010.5
20260904021056 20 198 3.2 17.7 0.00 0.00 0.00 81 1010.6
20260904020556 20 218 8.0 17.7 0.00 0.00 0.00 80 1010.6
20260904015551 20 201 3.2 16.1 0.00 0.00 0.00 81 1010.6
20260904015052 20 254 6.4 16.1 0.00 0.00 0.00 81 1010.6
20260904014628 21 257 6.4 17.7 0.00 0.00 0.00 80 1010.7
20260904014052 21 244 8.0 17.7 0.00 0.00 0.00 79 1010.6
20260904013551 21 284 4.8 17.7 0.00 0.00 0.00 79 1010.6
20260904013058 21 244 6.4 17.7 0.00 0.00 0.00 78 1010.5
20260904012553 21 254 11.3 19.3 0.00 0.00 0.00 78 1010.6
20260904012055 21 222 8.0 19.3 0.00 0.00 0.00 78 1010.6
20260904011608 21 277 8.0 17.7 0.00 0.00 0.00 75 1010.6
20260904011054 21 229 3.2 14.5 0.00 0.00 0.00 75 1010.5
20260904010554 21 219 4.8 16.1 0.00 0.00 0.00 74 1010.5
20260904010106 21 232 6.4 17.7 0.00 0.00 0.00 75 1010.6
20260904005554 21 236 8.0 22.5 0.00 0.00 0.00 76 1010.6
20260904005054 22 288 11.3 22.5 0.00 0.00 0.00 75 1010.6
20260904004605 22 187 9.7 22.5 0.00 0.00 0.00 76 1010.6
20260904004054 22 280 11.3 22.5 0.00 0.00 0.00 75 1010.6
20260904003555 22 271 6.4 22.5 0.00 0.00 0.00 74 1010.7
20260904003102 22 196 6.4 22.5 0.00 0.00 0.00 74 1010.6
20260904002556 22 228 3.2 17.7 0.00 0.00 0.00 73 1010.7
20260904002051 22 271 8.0 19.3 0.00 0.00 0.00 72 1010.7
20260904001558 22 258 4.8 20.9 0.00 0.00 0.00 71 1010.8
20260904001054 22 244 9.7 20.9 0.00 0.00 0.00 73 1010.9
20260904000554 22 0 11.3 19.3 0.00 0.00 0.00 71 1010.8
20260904000106 22 171 8.0 20.9 0.00 0.00 0.00 71 1010.8
20260903235555 22 172 6.4 22.5 0.00 0.00 0.00 73 1010.9
20260903235051 22 223 8.0 22.5 0.00 0.00 0.00 74 1010.9
20260903234603 22 156 6.4 17.7 0.00 0.00 0.00 73 1010.9
20260903234051 22 232 4.8 19.3 0.00 0.00 0.00 74 1010.9
20260903233550 22 212 9.7 22.5 0.00 0.00 0.00 74 1011.0
20260903233059 22 197 9.7 22.5 0.00 0.00 0.00 73 1011.1
20260903232554 22 165 8.0 19.3 0.00 0.00 0.00 72 1011.1
20260903232052 22 300 8.0 17.7 0.00 0.00 0.00 73 1011.1
20260903231609 22 182 8.0 17.7 0.00 0.00 0.00 72 1011.2
20260903231054 22 215 8.0 22.5 0.00 0.00 0.00 73 1011.2
20260903230600 22 192 4.8 22.5 0.00 0.00 0.00 73 1011.1
20260903230111 23 284 8.0 22.5 0.00 0.00 0.00 72 1011.3
20260903225619 22 219 6.4 24.1 0.00 0.00 0.00 73 1011.3
20260903225055 22 163 11.3 24.1 0.00 0.00 0.00 72 1011.4
20260903224601 23 284 11.3 20.9 0.00 0.00 0.00 73 1011.4
20260903224051 23 200 4.8 17.7 0.00 0.00 0.00 71 1011.4
20260903223557 23 294 4.8 20.9 0.00 0.00 0.00 72 1011.5
20260903223112 23 200 8.0 20.9 0.00 0.00 0.00 73 1011.6
20260903222550 23 279 11.3 19.3 0.00 0.00 0.00 72 1011.7
20260903222056 23 193 8.0 17.7 0.00 0.00 0.00 71 1011.7
20260903221556 23 192 8.0 17.7 0.00 0.00 0.00 72 1011.8
20260903221057 23 287 6.4 19.3 0.00 0.00 0.00 72 1011.9
20260903220554 23 249 8.0 19.3 0.00 0.00 0.00 71 1011.9
20260903220111 23 191 9.7 24.1 0.00 0.00 0.00 72 1011.9
20260903215551 23 246 8.0 24.1 0.00 0.00 0.00 71 1011.9
20260903215053 23 213 9.7 24.1 0.00 0.00 0.00 73 1012.0
20260903214606 23 250 12.9 24.1 0.00 0.00 0.00 72 1012.0
20260903214054 23 246 11.3 24.1 0.00 0.00 0.00 70 1012.0
20260903213550 23 178 8.0 20.9 0.00 0.00 0.00 72 1012.1
20260903213100 23 224 8.0 19.3 0.00 0.00 0.00 71 1012.0
20260903212554 22 260 9.7 19.3 0.00 0.00 0.00 73 1012.0
20260903212051 22 279 9.7 22.5 0.00 0.00 0.00 71 1012.0
20260903211612 22 259 9.7 22.5 0.00 0.00 0.00 73 1012.1
20260903211054 22 290 12.9 25.7 0.00 0.00 0.00 73 1012.0
20260903210554 22 302 12.9 25.7 0.00 0.00 0.00 72 1012.2
20260903210105 22 260 11.3 22.5 0.00 0.00 0.00 71 1012.2
20260903205551 22 307 11.3 24.1 0.00 0.00 0.00 71 1012.3
20260903205054 23 270 9.7 24.1 0.00 0.00 0.00 71 1012.4
20260903204605 23 234 9.7 19.3 0.00 0.00 0.00 72 1012.4
20260903204051 23 293 6.4 20.9 0.00 0.00 0.00 72 1012.5
20260903203551 22 251 11.3 22.5 0.00 0.00 0.00 72 1012.4
20260903203100 22 312 9.7 22.5 0.00 0.00 0.00 71 1012.3
20260903202554 23 263 8.0 20.9 0.00 0.00 0.00 71 1012.4
20260903202051 23 274 12.9 20.9 0.00 0.00 0.00 71 1012.4
20260903201555 23 284 8.0 20.9 0.00 0.00 0.00 71 1012.4
20260903201052 22 205 9.7 20.9 0.00 0.00 0.00 73 1012.5
20260903200551 22 239 11.3 20.9 0.00 0.00 0.00 73 1012.6
20260903200109 22 282 9.7 20.9 0.00 0.00 0.00 72 1012.6
20260903195550 23 179 9.7 17.7 0.00 0.00 0.00 73 1012.7
20260903195057 22 184 8.0 22.5 0.00 0.00 0.00 72 1012.7
20260903194558 22 227 4.8 22.5 0.00 0.00 0.00 73 1012.7
20260903194054 22 205 9.7 20.9 0.00 0.00 0.00 72 1012.8
20260903193554 23 172 8.0 19.3 0.00 0.00 0.00 71 1012.9
20260903193105 23 286 6.4 17.7 0.00 0.00 0.00 71 1012.9
20260903192551 23 168 6.4 17.7 0.00 0.00 0.00 73 1013.1
20260903192050 23 168 8.0 17.7 0.00 0.00 0.00 72 1013.0
20260903191608 23 219 6.4 17.7 0.00 0.00 0.00 73 1013.1
20260903191051 22 279 8.0 20.9 0.00 0.00 0.00 72 1013.1
20260903190555 22 241 12.9 20.9 0.00 0.00 0.00 71 1013.2
20260903190103 23 284 8.0 19.3 0.00 0.00 0.00 70 1013.2
20260903185554 23 210 9.7 17.7 0.00 0.00 0.00 71 1013.2
20260903185054 23 290 4.8 12.9 0.00 0.00 0.00 70 1013.3
20260903184604 23 200 3.2 16.1 0.00 0.00 0.00 69 1013.3
20260903184054 23 293 4.8 16.1 0.00 0.00 0.00 69 1013.3
20260903183551 23 265 3.2 16.1 0.00 0.00 0.00 69 1013.4
20260903183121 23 195 8.0 22.5 0.00 0.00 0.00 67 1013.5
20260903182554 23 198 6.4 22.5 0.00 0.00 0.00 67 1013.5
20260903182052 23 175 1.6 16.1 0.00 0.00 0.00 67 1013.6
20260903181639 23 46 3.2 16.1 0.00 0.00 0.00 68 1013.6
20260903181051 23 220 3.2 11.3 0.00 0.00 0.00 68 1013.6
20260903180551 23 146 3.2 11.3 0.00 0.00 0.00 68 1013.6
20260903180059 22 252 3.2 11.3 0.00 0.00 0.00 69 1013.6
20260903175550 22 171 4.8 9.7 0.00 0.00 0.00 69 1013.6
20260903175058 22 176 0.0 12.9 0.00 0.00 0.00 71 1013.7
20260903174600 22 0 0.0 12.9 0.00 0.00 0.00 73 1013.7
20260903174055 22 193 4.8 12.9 0.00 0.00 0.00 71 1013.7
20260903173554 22 13 3.2 9.7 0.00 0.00 0.00 71 1013.6
20260903173112 22 204 0.0 6.4 0.00 0.00 0.00 71 1013.7
20260903172552 22 288 1.6 12.9 0.00 0.00 0.00 71 1013.7
20260903172054 22 0 1.6 12.9 0.00 0.00 0.00 72 1013.7
20260903171606 21 0 4.8 12.9 0.00 0.00 0.00 72 1013.7
20260903171051 21 0 4.8 12.9 0.00 0.00 0.00 71 1013.7
20260903170552 21 207 3.2 12.9 0.00 0.00 0.00 73 1013.7
20260903170056 21 96 4.8 12.9 0.00 0.00 0.00 73 1013.7
20260903165553 21 119 3.2 11.3 0.00 0.00 0.00 75 1013.7
20260903165057 21 0 0.0 12.9 0.00 0.00 0.00 76 1013.6
20260903164602 21 116 1.6 14.5 0.00 0.00 0.00 76 1013.6
20260903164056 21 173 4.8 14.5 0.00 0.00 0.00 76 1013.6
20260903163557 21 0 3.2 9.7 0.00 0.00 0.00 77 1013.6
20260903163106 20 0 1.6 6.4 0.00 0.00 0.00 77 1013.7
20260903162556 20 111 0.0 4.8 0.00 0.00 0.00 78 1013.6
20260903162056 20 0 0.0 3.2 0.00 0.00 0.00 79 1013.6
20260903161614 20 230 0.0 11.3 0.00 0.00 0.00 79 1013.6
20260903161056 20 0 1.6 11.3 0.00 0.00 0.00 79 1013.6
20260903160556 20 191 1.6 11.3 0.00 0.00 0.00 79 1013.5
20260903160106 20 167 1.6 6.4 0.00 0.00 0.00 79 1013.6
20260903155556 20 0 0.0 6.4 0.00 0.00 0.00 80 1013.6
20260903155057 20 72 1.6 9.7 0.00 0.00 0.00 80 1013.6
20260903154606 20 65 1.6 9.7 0.00 0.00 0.00 80 1013.6
20260903154056 20 65 3.2 9.7 0.00 0.00 0.00 79 1013.7
20260903153556 20 115 1.6 8.0 0.00 0.00 0.00 79 1013.7
20260903153106 20 98 1.6 8.0 0.00 0.00 0.00 79 1013.6
20260903152557 20 190 0.0 4.8 0.00 0.00 0.00 80 1013.5
20260903152058 20 83 0.0 4.8 0.00 0.00 0.00 80 1013.6
20260903151612 20 102 0.0 3.2 0.00 0.00 0.00 81 1013.5
20260903151057 20 194 0.0 3.2 0.00 0.00 0.00 82 1013.5
20260903150557 20 5 0.0 3.2 0.00 0.00 0.00 83 1013.4
20260903150058 19 0 0.0 0.0 0.00 0.00 0.00 83 1013.5
20260903145557 19 0 0.0 0.0 0.00 0.00 0.00 84 1013.4
20260903145057 18 0 0.0 4.8 0.00 0.00 0.00 85 1013.4
20260903144607 18 0 0.0 4.8 0.00 0.00 0.00 85 1013.5
20260903144057 18 0 0.0 3.2 0.00 0.00 0.00 86 1013.4
20260903143557 18 0 0.0 3.2 0.00 0.00 0.00 87 1013.3
20260903143101 18 0 0.0 4.8 0.00 0.00 0.00 87 1013.2
20260903142556 18 59 1.6 4.8 0.00 0.00 0.00 87 1013.2
20260903142055 18 0 0.0 0.0 0.00 0.00 0.00 88 1013.2
20260903141605 18 0 0.0 0.0 0.00 0.00 0.00 88 1013.2
20260903141056 18 0 0.0 0.0 0.00 0.00 0.00 88 1013.2
20260903140555 18 0 0.0 1.6 0.00 0.00 0.00 88 1013.1
20260903135557 18 0 0.0 1.6 0.00 0.00 0.00 88 1013.0
20260903135057 18 0 0.0 3.2 0.00 0.00 0.00 88 1013.0
20260903134606 18 0 0.0 3.2 0.00 0.00 0.00 88 1012.9
20260903134054 18 0 0.0 3.2 0.00 0.00 0.00 88 1013.0
20260903133552 18 0 0.0 3.2 0.00 0.00 0.00 88 1013.0
20260903133103 18 0 0.0 3.2 0.00 0.00 0.00 88 1013.0
20260903132551 18 0 0.0 3.2 0.00 0.00 0.00 88 1013.0
20260903132051 18 0 0.0 4.8 0.00 0.00 0.00 87 1013.0
20260903131604 18 0 0.0 4.8 0.00 0.00 0.00 87 1012.9
20260903131050 18 62 0.0 3.2 0.00 0.00 0.00 87 1012.9
20260903130552 18 0 0.0 4.8 0.00 0.00 0.00 87 1013.0
20260903130109 18 52 0.0 4.8 0.00 0.00 0.00 87 1013.0
20260903125552 18 41 0.0 6.4 0.00 0.00 0.00 87 1012.9
20260903125054 18 0 1.6 6.4 0.00 0.00 0.00 87 1013.0
20260903124605 18 69 1.6 6.4 0.00 0.00 0.00 86 1013.0
20260903124055 18 90 1.6 4.8 0.00 0.00 0.00 86 1012.9
20260903123554 18 0 1.6 4.8 0.00 0.00 0.00 86 1012.9
20260903123107 18 63 1.6 4.8 0.00 0.00 0.00 86 1012.9
20260903122551 18 0 0.0 3.2 0.00 0.00 0.00 86 1012.9
20260903122051 18 0 0.0 0.0 0.00 0.00 0.00 86 1012.8
20260903121602 18 0 0.0 1.6 0.00 0.00 0.00 86 1012.9
20260903121051 17 0 0.0 4.8 0.00 0.00 0.00 86 1012.9
20260903120555 17 0 0.0 4.8 0.00 0.00 0.00 86 1012.9
20260903120056 17 56 0.0 4.8 0.00 0.00 0.00 86 1013.0
20260903115554 17 0 0.0 4.8 0.00 0.00 0.00 86 1012.9
20260903115054 17 71 0.0 0.0 0.00 0.00 0.00 87 1013.1
20260903114557 17 0 0.0 3.2 0.00 0.00 0.00 86 1013.0
20260903114051 17 0 0.0 3.2 0.00 0.00 0.00 86 1013.0
20260903113554 17 0 0.0 3.2 0.00 0.00 0.00 86 1013.1
20260903113103 17 0 0.0 4.8 0.00 0.00 0.00 86 1013.1
20260903112554 17 0 0.0 4.8 0.00 0.00 0.00 86 1013.1
20260903112051 17 0 0.0 1.6 0.00 0.00 0.00 86 1013.2
20260903111601 17 0 0.0 3.2 0.00 0.00 0.00 86 1013.1
20260903111051 17 0 0.0 3.2 0.00 0.00 0.00 86 1013.1
20260903110551 17 0 0.0 3.2 0.00 0.00 0.00 86 1013.1
20260903110106 17 0 1.6 3.2 0.00 0.00 0.00 86 1013.2
20260903105557 17 0 0.0 0.0 0.00 0.00 0.00 85 1013.2
20260903105055 17 0 0.0 0.0 0.00 0.00 0.00 85 1013.1
20260903104603 17 0 0.0 3.2 0.00 0.00 0.00 85 1013.2
20260903104051 17 0 0.0 4.8 0.00 0.00 0.00 85 1013.1
20260903103551 17 0 0.0 4.8 0.00 0.00 0.00 85 1013.2
20260903103105 17 29 0.0 3.2 0.00 0.00 0.00 85 1013.1
20260903102552 17 41 0.0 3.2 0.00 0.00 0.00 85 1013.2
20260903102054 17 41 0.0 4.8 0.00 0.00 0.00 85 1013.2
20260903101558 17 0 0.0 4.8 0.00 0.00 0.00 85 1013.2
20260903101051 17 0 0.0 4.8 0.00 0.00 0.00 84 1013.2
20260903100556 17 0 0.0 4.8 0.00 0.00 0.00 84 1013.1
20260903100058 17 0 0.0 4.8 0.00 0.00 0.00 84 1013.2
20260903095554 17 0 0.0 4.8 0.00 0.00 0.00 83 1013.1
20260903095054 17 0 0.0 4.8 0.00 0.00 0.00 83 1013.2
20260903094607 17 18 0.0 6.4 0.00 0.00 0.00 83 1013.2
20260903094054 17 0 0.0 6.4 0.00 0.00 0.00 83 1013.3
20260903093552 17 40 0.0 4.8 0.00 0.00 0.00 83 1013.3
20260903093104 18 0 0.0 3.2 0.00 0.00 0.00 83 1013.3
20260903092551 18 13 0.0 3.2 0.00 0.00 0.00 82 1013.3
20260903092051 18 0 0.0 4.8 0.00 0.00 0.00 82 1013.4
20260903091606 18 0 0.0 4.8 0.00 0.00 0.00 82 1013.5
20260903091054 18 0 0.0 4.8 0.00 0.00 0.00 82 1013.5
20260903090555 18 24 0.0 4.8 0.00 0.00 0.00 82 1013.6
20260903090059 18 31 1.6 6.4 0.00 0.00 0.00 81 1013.5
20260903085554 18 36 0.0 6.4 0.00 0.00 0.00 81 1013.5
20260903085054 18 15 1.6 6.4 0.00 0.00 0.00 81 1013.6
20260903084559 18 0 0.0 0.0 0.00 0.00 0.00 81 1013.6
20260903084054 18 0 0.0 0.0 0.00 0.00 0.00 81 1013.7
20260903083554 18 0 0.0 0.0 0.00 0.00 0.00 80 1013.7
20260903083103 18 0 0.0 0.0 0.00 0.00 0.00 80 1013.7
20260903082554 18 0 0.0 0.0 0.00 0.00 0.00 80 1013.7
20260903082054 18 0 0.0 0.0 0.00 0.00 0.00 79 1013.8
20260903081556 18 0 0.0 0.0 0.00 0.00 0.00 79 1013.8
20260903081051 18 0 0.0 0.0 0.00 0.00 0.00 79 1013.9
20260903080555 18 0 0.0 0.0 0.00 0.00 0.00 78 1013.9
20260903080106 18 0 0.0 0.0 0.00 0.00 0.00 78 1013.9
20260903075555 18 0 0.0 3.2 0.00 0.00 0.00 78 1013.9
20260903075055 18 0 0.0 3.2 0.00 0.00 0.00 78 1013.9
20260903074559 18 0 0.0 3.2 0.00 0.00 0.00 78 1013.9
20260903074054 18 0 0.0 3.2 0.00 0.00 0.00 78 1013.8
20260903073554 18 0 0.0 0.0 0.00 0.00 0.00 78 1013.9
20260903073113 18 0 0.0 0.0 0.00 0.00 0.00 78 1013.8
20260903072554 18 0 0.0 0.0 0.00 0.00 0.00 77 1013.8
20260903072051 18 0 0.0 0.0 0.00 0.00 0.00 76 1013.8
20260903071602 18 0 0.0 0.0 0.00 0.00 0.00 76 1013.8
20260903071059 18 0 0.0 0.0 0.00 0.00 0.00 75 1013.8
20260903070600 18 0 0.0 0.0 0.00 0.00 0.00 75 1013.9
20260903070107 18 0 0.0 0.0 0.00 0.00 0.00 75 1013.9
20260903065557 18 0 0.0 0.0 0.00 0.00 0.00 75 1013.8
20260903065056 18 0 0.0 0.0 0.00 0.00 0.00 75 1013.8
20260903064606 18 0 0.0 0.0 0.00 0.00 0.00 74 1013.8
20260903064056 18 0 0.0 0.0 0.00 0.00 0.00 74 1013.7
20260903063556 18 0 0.0 0.0 0.00 0.00 0.00 74 1013.7
20260903063126 18 0 0.0 0.0 0.00 0.00 0.00 74 1013.7
20260903062557 18 0 0.0 0.0 0.00 0.00 0.00 73 1013.7
20260903062056 18 0 0.0 0.0 0.00 0.00 0.00 73 1013.7
20260903061559 18 0 0.0 0.0 0.00 0.00 0.00 73 1013.7
20260903061058 18 0 0.0 0.0 0.00 0.00 0.00 73 1013.7
20260903060557 18 0 0.0 0.0 0.00 0.00 0.00 73 1013.6
20260903060109 18 0 0.0 0.0 0.00 0.00 0.00 73 1013.5
20260903055557 18 0 0.0 0.0 0.00 0.00 0.00 73 1013.6
20260903055056 18 0 0.0 0.0 0.00 0.00 0.00 73 1013.5
20260903054607 18 0 0.0 0.0 0.00 0.00 0.00 73 1013.5
20260903054056 18 0 0.0 0.0 0.00 0.00 0.00 73 1013.4
20260903053556 19 0 0.0 0.0 0.00 0.00 0.00 73 1013.4
20260903053104 19 0 0.0 4.8 0.00 0.00 0.00 73 1013.5
20260903052556 19 0 0.0 4.8 0.00 0.00 0.00 73 1013.6
20260903052059 19 49 0.0 3.2 0.00 0.00 0.00 73 1013.5
20260903051600 19 0 0.0 3.2 0.00 0.00 0.00 73 1013.5
20260903051056 19 0 0.0 4.8 0.00 0.00 0.00 73 1013.5
20260903050558 19 39 0.0 8.0 0.00 0.00 0.00 73 1013.4
20260903050059 19 38 0.0 8.0 0.00 0.00 0.00 73 1013.4